Gorna Orechovista, Bulgaria

8:40 PM EEST on April 20, 2019 (GMT +0300)
Gorna Oryahovitsa

Weather History for LBGO - April, 2019

Change the Weather History Date:

Saturday, April 20, 2019

  Actual Average Record
Temperature  
Mean Temperature 47 °F -  
Max Temperature 57 °F - - ()
Min Temperature 37 °F - - ()
Degree Days  
Heating Degree Days 18    
Moisture  
Dew Point 39 °F    
Average Humidity 80    
Maximum Humidity 100    
Minimum Humidity 36    
Precipitation  
Precipitation 0.00 in - - ()
Sea Level Pressure  
Sea Level Pressure 30.32 in    
Wind  
Wind Speed 4 mph ()    
Max Wind Speed 13 mph    
Max Gust Speed -    
Visibility 3.7 miles    
Events Fog , Rain    
T = Trace of Precipitation, MM = Missing Value Source: Averaged Metar Reports

Daily Weather History Graph

Daily Weather History Graph

Search for Another Location

Airport or City:

Astronomy

Apr. 20, 2019 Rise Set
Actual Time 6:27 AM EEST 8:05 PM EEST
Civil Twilight 5:57 AM EEST 8:35 PM EEST
Nautical Twilight 5:21 AM EEST 9:11 PM EEST
Astronomical Twilight 4:42 AM EEST 9:50 PM EEST
Moon 9:18 PM EEST 7:19 AM EEST
Length of Visible Light 14h 37m
Length of Day
13h 37m
Full, 99% of the Moon is Illuminated
Today
Full
Apr 27
Last Quarter
May 5
New
May 12
First Quarter
May 19
Full

Hourly Weather History & Observations

Time (EEST) Temp. Windchill Dew Point Humidity Pressure Visibility Wind Dir Wind Speed Gust Speed Precip Events Conditions
12:00 AM 42.8 °F - 42.8 °F 100% 30.30 in 3.1 mi West 2.3 mph - N/A   Mostly Cloudy
12:30 AM 42.8 °F - 42.8 °F 100% 30.30 in 0.6 mi Variable 2.3 mph - N/A Fog Fog
1:00 AM 41.0 °F 39.0 °F 41.0 °F 100% 30.30 in 0.3 mi SE 3.5 mph - N/A Fog Fog
1:30 AM 39.2 °F - 39.2 °F 100% 30.30 in 0.4 mi Variable 2.3 mph - N/A Fog Patches of Fog
2:00 AM 37.4 °F - 37.4 °F 100% 30.30 in 0.3 mi SE 2.3 mph - N/A Fog Fog
2:30 AM 37.4 °F 33.8 °F 37.4 °F 100% 30.30 in 0.6 mi SSE 4.6 mph - N/A Fog Patches of Fog
3:00 AM 37.4 °F - 37.4 °F 100% 30.30 in 0.3 mi ENE 2.3 mph - N/A Fog Fog
3:30 AM 37.4 °F - 37.4 °F 100% 30.30 in 0.4 mi Variable 2.3 mph - N/A Fog Fog
4:00 AM 39.2 °F 37.0 °F 39.2 °F 100% 30.30 in 0.3 mi WSW 3.5 mph - N/A Fog Fog
4:30 AM 37.4 °F - 37.4 °F 100% 30.30 in 0.4 mi West 1.2 mph - N/A Fog Fog
5:00 AM 39.2 °F - 39.2 °F 100% 30.30 in 0.3 mi WSW 1.2 mph - N/A Fog Fog
5:30 AM 39.2 °F - 39.2 °F 100% 30.30 in 1.2 mi Variable 2.3 mph - N/A Fog Fog
6:00 AM 41.0 °F 39.0 °F 41.0 °F 100% 30.30 in 0.4 mi East 3.5 mph - N/A Fog Fog
6:30 AM 41.0 °F 39.0 °F 41.0 °F 100% 30.33 in 0.3 mi SSE 3.5 mph - N/A Fog Fog
7:00 AM 41.0 °F - 41.0 °F 100% 30.30 in - Variable 2.3 mph - N/A Fog Fog
7:30 AM 41.0 °F 39.0 °F 41.0 °F 100% 30.33 in 0.4 mi ENE 3.5 mph - N/A Fog Patches of Fog
8:00 AM 41.0 °F - 41.0 °F 100% 30.33 in - Variable 1.2 mph - N/A   Overcast
8:30 AM 42.8 °F - 42.8 °F 100% 30.33 in - Variable 2.3 mph - N/A Rain Light Rain Showers
9:00 AM 42.8 °F 40.1 °F 42.8 °F 100% 30.33 in - West 4.6 mph - N/A Rain Light Rain Showers
9:30 AM 44.6 °F 41.4 °F 44.6 °F 100% 30.36 in 3.7 mi West 5.8 mph - N/A   Overcast
10:00 AM 44.6 °F 42.2 °F 44.6 °F 100% 30.36 in 6.2 mi WNW 4.6 mph - N/A   Mostly Cloudy
10:30 AM 46.4 °F 43.5 °F 44.6 °F 93% 30.36 in 6.2 mi West 5.8 mph - N/A   Overcast
11:00 AM 50.0 °F - 44.6 °F 82% 30.36 in 6.2 mi NNW 5.8 mph - N/A   Scattered Clouds
11:30 AM 50.0 °F - 42.8 °F 76% 30.36 in 6.2 mi NNW 4.6 mph - N/A   Mostly Cloudy
12:00 PM 50.0 °F - 42.8 °F 76% 30.36 in 6.2 mi NW 8.1 mph - N/A   Overcast
12:30 PM 51.8 °F - 39.2 °F 62% 30.33 in 6.2 mi WNW 5.8 mph - N/A Rain Light Rain
1:00 PM 53.6 °F - 42.8 °F 67% 30.33 in 6.2 mi North 10.4 mph - N/A   Mostly Cloudy
2:00 PM 53.6 °F - 39.2 °F 58% 30.33 in 6.2 mi NW 11.5 mph - N/A   Partly Cloudy
3:00 PM 53.6 °F - 32.0 °F 44% 30.33 in 6.2 mi NNW 11.5 mph - N/A   Scattered Clouds
3:30 PM 57.2 °F - 32.0 °F 38% 30.33 in 6.2 mi NNE 6.9 mph - N/A   Mostly Cloudy
4:00 PM 55.4 °F - 32.0 °F 41% 30.33 in 6.2 mi NE 12.7 mph - N/A   Scattered Clouds
4:30 PM 55.4 °F - 32.0 °F 41% 30.33 in 6.2 mi NE 8.1 mph - N/A   Mostly Cloudy
5:00 PM 55.4 °F - 28.4 °F 36% 30.33 in 6.2 mi NNE 9.2 mph - N/A   Unknown
5:30 PM 55.4 °F - 32.0 °F 41% 30.33 in 6.2 mi North 9.2 mph - N/A   Overcast
6:30 PM 53.6 °F - 33.8 °F 47% 30.33 in 6.2 mi NNW 10.4 mph - N/A   Mostly Cloudy
7:00 PM 53.6 °F - 33.8 °F 47% 30.33 in 6.2 mi NNW 8.1 mph - N/A   Unknown
7:30 PM 53.6 °F - 33.8 °F 47% 30.33 in 6.2 mi NW 9.2 mph - N/A   Unknown
8:00 PM 48.2 °F - 35.6 °F 62% 30.33 in 6.2 mi NW 4.6 mph - N/A   Unknown
8:30 PM 44.6 °F 42.2 °F 35.6 °F 71% 30.33 in 6.2 mi WNW 4.6 mph - N/A   Unknown